Voltar ao catálogo

COSMOS 1255

AtivoNavegaçãoLEO
NORAD 12325·PAYLOAD·🇷🇺 Russia

Lançado Mar 6, 1981 de Plesetsk Cosmodrome

Loading…

Próximas Passagens (próximas 24 horas)

TLE

AtualizadoSource: Space-Track

Época: Sep 14, 2026, 11:18 UTC

1 12325U 81022F   26257.47100411  .00000007  00000-0  15128-3 0  9993
2 12325  74.0304 152.1624 0017734 256.0345 277.6374 12.51492771 79754

Acompanhe COSMOS 1255 em tempo real com AllMySat

Download on the App Store